Skip Page Navigation
NASA JPL Caltech
NASA Logo - Jet Propulsion Laboratory + View the NASA Portal
+ Center for Near-Earth Object Studies
JPL Home Earth Solar System Stars & Galaxies Technology
JPL Solar System Dynamics
BODIES ORBITS EPHEMERIDES TOOLS PHYSICAL DATA DISCOVERY FAQ SITE MAP
JPL Small-Body Database Browser
Search: [ help ]  
85635 (1998 MV1)
Classification: Main-belt Asteroid          SPK-ID: 2085635
Ephemeris | Orbit Diagram | Orbital Elements | Mission Design | Physical Parameters | Discovery Circumstances | Close-Approach Data ]

[ show orbit diagram ]
Orbital Elements at Epoch 2459200.5 (2020-Dec-17.0) TDB
Reference: JPL 18 (heliocentric ecliptic J2000)
 Element Value Uncertainty (1-sigma)   Units 
e .1202925863813877 4.5926e-08  
a 3.028487456946561 2.0082e-08 au
q 2.664182867926868 1.4445e-07 au
i 4.833200965195633 4.3919e-06 deg
node 232.7802698254361 6.1318e-05 deg
peri 83.4765302458114 6.7571e-05 deg
M 37.0660404042415 2.4438e-05 deg
tp 2459002.296741611053
(2020-Jun-01.79674161)
0.00013143 TDB
period 1925.028199447384
5.27
1.9148e-05
5.242e-08
d
yr
n .1870102474879821 1.8601e-09 deg/d
Q 3.392792045966255 2.2498e-08 au
  Orbit Determination Parameters
   # obs. used (total)      528  
   data-arc span      8206 days (22.47 yr)  
   first obs. used      1998-06-20  
   last obs. used      2020-12-07  
   planetary ephem.      DE431  
   SB-pert. ephem.      SB431-N16  
   condition code      0  
   norm. resid. RMS      .52593  
   source      ORB  
   producer      Otto Matic  
   solution date      2021-Feb-24 07:41:16  

Additional Information
 Earth MOID = 1.65431 au 
 Jupiter MOID = 1.8894 au 
 T_jup = 3.227 
[ show covariance matrix ]

Ephemeris | Orbit Diagram | Orbital Elements | Mission Design | Physical Parameters | Discovery Circumstances | Close-Approach Data ]

Physical Parameter Table
Parameter Symbol Value Units Sigma Reference Notes
absolute magnitude H 15.51   n/a E2021B10  
diameter diameter 3.995 km 0.380 urn:nasa:pds:neowise_diameters_albedos::2.0[mainbelt] (http://adsabs.harvard.edu/abs/2011ApJ...741...68M)  
geometric albedo albedo 0.070   0.023 urn:nasa:pds:neowise_diameters_albedos::2.0[mainbelt] (http://adsabs.harvard.edu/abs/2011ApJ...741...68M)  

85635 (1998 MV1)          Discovered 1998-Jun-20 by Spacewatch at Kitt Peak
Reference: 20040830/Numbers.arcLast Updated: 2004-09-06

[ show close-approach data ]
Alternate Designations
 1998 MV1 = 1999 RQ70 
Ephemeris | Orbit Diagram | Orbital Elements | Mission Design | Physical Parameters | Discovery Circumstances | Close-Approach Data ]
ABOUT SSD CREDITS/AWARDS PRIVACY/COPYRIGHT GLOSSARY LINKS
FirstGov 2021-Mar-09 05:22 UT
(server date/time)  
NASA Home Page
Site Manager:   Ryan S. Park
Webmaster  Alan B. Chamberlin